Find Hawk 10A

NORAD ID: 60540 Int'l Des: 2024-149 Owner: HE360 Country: US operational
LEOCIRCULARRETROGRADESSO

Live Position

Loading 3D Globe...

About Hawk 10A

Description loading...

Upcoming Passes

Passes for default location (London). Set your location on the main map for personalized predictions.

Altitude History

Loading altitude history...

Two-Line Element Set

1 60540U 24149CA 26104.44428980 .00000798 00000-0 75610-4 0 9994
2 60540 97.6912 181.4547 0001897 297.0719 63.0308 14.96319448 90458
Epoch: Apr 14, 2026 • Age: 7 hours

Current Status

Altitude 592.5 km
Velocity 7.56 km/s
Sub-Earth Point -37.84°S, 117.97°W
Launch Date Aug 16, 2024
Age 1.6 years
Type other

Technical Details

Classification Payload
Mass 31.00 kg
Dry Mass 30.00 kg
Total Mass 31.00 kg
Length 0.45 m
Diameter 0.30 m
Span 1.00 m
Shape Box + 2 pan
Manufacturer UTIAS
Bus Type Hawk2G
Phase Status In Orbit
Owner/State HE360/US

Most Searched